本田-ムルコス-パイドゥシャーコヴァー彗星

45P/Honda-Mrkos-Pajdusakova (1995)

English version
Home page
Total 6,336 html files since Dec. 4, 1995
Updated on August 26, 2006

---------------------------------------------------------------------

・ プロフィール

・ 軌道要素

  by Kenji Muraoka,
  from 166 observations  1980 May 6 to 1996 Apr. 20,
  mean residual is  +/- 1.01 arc seconds.

      Epoch  =  1995 Dec. 29.0  TT       JDT = 2450080.5
          T  =  1995 Dec. 25.98453       +/- 0.00015 (m.e.) TT
       Peri. =  326.05346                +/- 0.00033
       Node  =   89.15594                +/- 0.00041   (2000.0)
       Incl. =    4.24839                +/- 0.00022
          q  =    0.5320516              +/- 0.0000003 AU
          e  =    0.8242401              +/- 0.0000001
          a  =    3.0271502              +/- 0.0000007 AU
          n  =    0.18713418             +/- 0.00000006
          P  =    5.267                  +/- 0.0000018  years
         A1  =   +0.064                  +/- 0.007
         A2  =   -0.05809                +/- 0.00029

・ 星図

・ 1995年 8月 1日〜1996年 2月 7日
・ 1996年 2月 7日〜1996年 5月17日

・ 光度変化

        m1 = 16.0 + 5 logΔ + 30.0 log r  [ ,0]  (              〜1995年12月25日)
        m1 = 12.0 + 5 logΔ + 15.0 log r  [0, ]  (1995年12月25日〜              )

---------------------------------------------------------------------

軌道要素は村岡健治氏の計算によるものです。
星図は StellaNavigator Ver.2.0 for Windows (アストロアーツ 編著 / アスキー出版局刊) で作成したものです。
光度グラフはComet for Windowsで作成したものです。

---------------------------------------------------------------------

Copyright(C) 1995-2008 Seiichi Yoshida (comet@aerith.net). All rights reserved.